Theta_e
313 310 310 310 309 310 313 313 313 312 313 313 312 311 310 310 308 306 306 307 307 308 311 313 314 315 317 321 326 330 334 335 336 336 336 336 335 333 334 333 333 334 334 333
311 310 310 310 311 312 313 314 313 311 313 313 312 311 309 309 310 310 309 306 306 307 308 310 313 314 315 317 323 328 332 334 334 335 334 333 331 331 333 333 333 333 334 334
313 313 311 313 314 314 314 313 313 312 312 311 311 309 310 310 310 309 308 307 308 308 308 307 308 312 314 315 319 325 329 332 333 333 331 330 329 329 330 331 331 331 329 332
313 313 313 313 313 313 314 312 312 312 312 311 310 310 310 311 310 309 309 308 308 307 307 307 308 310 312 314 316 321 324 328 331 331 329 328 327 326 327 327 329 329 329 328
313 312 311 313 313 311 312 313 313 314 313 313 312 311 309 308 309 308 308 307 307 306 307 308 309 311 313 314 314 316 321 326 329 330 328 326 325 324 324 324 324 328 328 327
311 311 313 312 311 311 311 313 313 311 310 310 310 310 308 309 310 310 312 311 311 312 311 311 313 314 314 314 313 314 318 323 326 326 326 325 322 321 319 319 318 319 321 322
313 312 312 312 311 312 312 309 310 312 312 310 309 309 309 308 309 311 312 310 309 311 309 309 311 310 311 313 313 314 315 317 320 321 323 323 322 320 319 318 316 315 315 315
312 312 312 311 311 312 312 310 310 310 315 312 309 311 311 309 311 310 311 308 306 306 306 307 306 309 311 310 312 313 313 313 314 316 316 316 317 317 316 316 316 315 314 314
309 310 311 310 311 310 312 313 310 311 300 309 310 309 309 309 309 308 307 308 309 308 308 308 307 309 310 311 310 311 312 312 312 312 313 314 314 315 315 315 315 314 314 314
311 313 311 310 311 310 311 310 313 310 309 310 310 309 311 310 310 313 312 311 309 309 308 306 307 309 309 310 310 309 309 310 310 311 311 311 312 313 314 315 315 314 314 314
310 312 312 310 311 311 311 312 312 311 311 310 310 309 306 309 311 313 313 311 312 311 309 307 307 308 309 309 309 309 309 309 309 309 310 310 311 311 312 313 314 314 313 313
312 312 310 311 309 309 310 310 311 312 311 309 311 313 309 309 311 309 311 312 312 311 307 305 306 307 308 308 308 309 309 309 309 309 309 309 310 310 311 311 312 311 312 312
313 311 305 311 311 310 311 311 311 311 308 312 310 313 309 308 307 307 309 308 308 307 307 306 305 305 306 307 309 309 309 310 310 309 309 309 309 309 310 310 310 310 310 311
314 314 310 311 316 315 316 315 316 315 309 312 312 312 312 310 309 308 307 309 309 307 306 306 305 305 308 309 308 309 309 310 310 309 309 309 309 309 309 308 308 308 309 309
314 316 314 314 314 314 317 316 316 317 317 320 314 313 312 311 310 309 308 308 308 308 308 308 307 306 309 309 310 310 310 309 309 308 308 308 308 308 307 307 307 307 307 308
310 307 312 311 311 312 311 310 311 314 315 315 315 316 314 313 312 310 310 309 310 311 310 308 307 306 306 307 307 307 307 307 307 306 306 307 307 306 306 306 306 306 306 305
310 310 309 301 308 309 305 308 310 310 311 313 315 313 311 311 311 309 309 308 307 306 305 304 303 303 302 302 302 304 304 304 304 304 305 304 304 304 304 305 305 305 304 303
307 308 308 294 293 297 302 303 306 310 310 310 311 311 307 306 305 305 305 304 304 304 303 302 301 299 299 299 299 298 299 301 301 301 301 301 302 302 303 303 303 303 302 301
303 301 294 294 286 297 299 298 300 303 304 305 306 305 304 304 303 305 304 302 303 302 301 299 298 297 296 295 293 294 295 295 296 298 298 298 298 299 300 300 300 300 299 298
303 303 300 286 296 297 298 301 303 305 304 303 304 304 303 304 303 303 302 301 300 300 299 298 296 294 294 294 292 291 292 293 293 294 294 295 295 295 296 297 297 297 296 295
300 303 304 302 302 297 298 298 305 300 300 295 299 301 301 302 302 302 300 301 301 299 298 296 294 293 291 291 290 289 290 291 290 290 292 292 293 294 294 294 294 294 293 291
298 296 297 295 301 302 299 304 305 301 299 298 299 298 298 299 299 299 300 298 296 296 295 294 291 290 290 289 288 287 288 289 289 289 290 291 292 292 292 291 291 290 289 288
295 298 296 298 298 298 301 300 300 299 298 298 299 297 299 299 299 299 298 295 293 293 293 292 290 288 288 287 286 286 287 287 287 288 288 289 289 289 290 290 289 287 286 286
295 295 295 294 295 294 294 296 298 298 298 297 297 297 298 298 297 296 294 294 292 292 291 290 288 286 286 286 285 285 286 286 286 287 287 287 287 287 287 287 287 286 285 284
292 294 290 291 295 296 296 295 296 296 298 297 296 296 297 296 296 294 293 290 289 289 288 287 285 284 283 283 283 283 284 286 286 286 285 285 285 285 285 285 285 285 284 285
292 294 295 293 294 294 294 294 293 293 295 295 294 294 294 294 294 292 288 289 289 287 285 284 283 281 281 282 282 283 283 285 285 284 284 285 285 285 285 285 285 285 285 285
Wind_Speed
1 4 6 10 8 5 4 4 1 1 4 4 6 8 11 10 9 9 10 11 11 12 17 26 36 39 38 37 41 39 42 43 43 43 43 40 42 38 36 36 34 33 37 40
5 3 10 5 5 6 3 3 3 2 2 3 6 11 11 8 11 15 14 10 11 7 8 19 25 34 40 40 41 41 43 45 44 42 41 36 35 39 41 39 35 35 32 38
6 5 8 5 2 4 2 4 3 5 1 2 4 8 7 7 5 8 8 10 8 12 11 9 15 27 38 41 44 46 45 45 46 43 37 34 30 32 37 41 42 40 37 36
6 5 3 5 4 5 2 0 4 4 3 3 3 6 6 7 13 5 10 9 11 10 7 7 11 13 30 43 45 45 45 45 45 46 40 39 35 32 38 36 44 45 42 40
7 6 7 4 5 5 6 3 2 2 2 2 4 1 8 5 6 11 9 7 8 9 7 7 8 16 21 34 40 42 41 42 42 45 45 42 35 31 30 34 35 42 42 43
3 1 2 6 2 2 8 5 7 5 3 3 8 8 4 4 5 3 2 3 5 5 5 5 3 4 7 19 29 32 36 38 39 41 44 43 37 33 32 29 33 35 37 39
2 3 2 3 6 7 5 6 2 3 2 6 4 1 6 6 5 4 4 4 4 5 5 5 6 7 6 7 18 24 30 35 36 36 40 42 41 39 39 38 35 34 35 37
7 5 8 5 7 8 7 7 6 7 4 4 5 6 4 7 4 5 3 6 5 7 6 7 9 9 10 6 8 13 20 26 29 32 35 37 40 39 38 38 38 38 38 38
6 6 2 3 4 9 5 6 6 4 2 3 5 7 8 9 7 10 11 8 8 7 9 9 11 10 8 6 6 10 14 18 21 25 29 33 34 38 38 36 36 37 37 37
3 1 4 2 3 3 6 5 3 2 3 4 5 5 8 10 9 4 6 6 6 5 5 7 7 5 2 2 5 8 11 14 17 21 24 28 32 35 36 36 37 37 38 36
5 3 3 2 4 8 3 2 2 4 5 5 2 7 7 8 7 4 3 4 4 5 4 4 4 4 3 4 7 8 10 12 15 16 21 25 29 32 34 36 37 37 36 35
1 4 4 6 3 2 3 5 6 4 3 4 3 13 3 10 4 8 5 6 3 3 5 6 7 4 5 7 9 10 10 13 15 16 18 24 26 29 33 35 36 35 37 36
2 1 3 6 3 3 3 2 3 1 4 12 4 14 2 6 9 6 6 7 6 8 9 7 7 9 10 12 12 14 15 17 16 18 19 22 26 29 33 36 34 33 35 35
6 2 4 6 4 3 3 4 4 2 3 3 14 20 21 8 11 12 11 13 14 8 7 7 8 9 16 18 16 17 19 19 21 21 22 24 28 31 32 34 32 31 33 34
5 5 2 3 2 3 3 6 5 5 6 5 14 10 29 15 14 11 9 8 9 7 8 8 6 8 19 16 17 20 22 22 22 23 25 28 30 31 29 31 30 30 31 33
1 3 2 2 5 5 6 11 10 12 16 14 20 22 23 21 14 6 9 10 11 12 10 10 9 10 11 13 14 15 14 15 17 22 26 29 29 29 30 29 30 30 31 32
5 5 3 4 1 4 5 11 12 7 6 8 14 20 19 14 11 5 9 7 6 7 7 8 8 11 16 18 19 20 20 18 17 18 21 24 27 27 27 27 27 29 30 30
7 5 3 4 4 1 8 4 0 6 7 9 10 6 5 6 8 8 2 3 6 7 8 10 13 19 23 20 16 20 22 23 22 22 21 21 22 24 22 23 26 27 26 27
5 4 1 3 4 5 10 8 6 6 5 2 2 4 3 5 8 4 2 1 3 5 7 10 13 16 22 24 24 21 22 22 21 21 20 19 18 18 19 20 22 24 24 23
4 5 5 2 5 8 8 1 6 6 4 6 3 3 4 4 7 7 8 5 8 12 8 13 20 21 17 20 22 23 20 17 18 19 20 18 15 16 16 15 17 18 18 18
5 5 15 11 7 6 14 6 2 4 7 4 4 5 5 4 6 13 8 8 10 12 16 19 21 20 22 18 20 20 18 16 18 18 15 13 12 12 12 10 11 12 13 12
7 8 5 4 4 11 7 3 7 4 3 5 4 7 8 9 11 8 10 8 7 13 18 22 21 20 21 18 19 20 18 16 15 13 14 10 8 8 8 7 7 8 9 10
2 7 5 9 7 7 3 4 4 5 4 5 4 9 7 7 8 8 9 8 7 12 16 20 17 20 21 18 15 18 17 17 12 9 7 6 5 5 6 9 9 10 11 10
4 2 4 4 8 7 7 4 4 6 6 6 6 7 4 8 7 8 8 8 5 12 14 15 17 16 18 19 19 15 13 13 13 9 4 2 2 3 4 7 8 9 10 11
5 3 3 4 6 3 5 5 6 6 4 6 6 6 8 6 10 6 6 5 10 10 9 10 9 10 12 12 15 16 11 10 11 7 3 4 5 5 6 3 3 5 5 6
5 4 3 4 5 3 7 9 7 8 9 9 7 7 5 6 8 3 6 11 11 13 10 9 8 8 8 9 12 12 10 7 9 7 6 6 7 8 8 8 8 6 5 3
Wind_Direction
183 97 184 207 199 183 148 131 201 219 218 170 231 261 269 270 287 266 250 240 240 237 240 238 231 222 217 217 215 214 210 208 207 209 210 216 218 217 212 216 219 218 217 215
45 210 226 211 213 208 184 180 249 319 171 156 272 272 264 254 250 251 255 253 239 245 248 249 237 224 218 214 214 212 214 212 211 207 210 213 215 220 219 216 216 216 217 218
155 219 201 156 170 148 172 171 222 218 354 288 335 288 289 289 252 268 254 245 247 231 236 241 244 230 220 215 214 215 214 215 214 211 209 211 216 224 222 222 223 221 221 222
210 240 108 158 186 146 221 211 237 258 61 233 87 288 288 266 275 279 275 258 251 263 259 243 244 233 222 223 220 216 216 217 214 214 212 210 213 217 223 224 223 224 221 225
229 185 168 174 202 152 202 160 110 110 149 67 303 266 276 264 279 267 272 284 278 264 254 264 263 254 241 228 223 220 217 216 214 214 217 215 214 221 227 229 230 229 227 225
179 159 157 162 71 167 154 75 39 38 73 293 206 192 269 237 222 301 340 60 38 62 59 37 28 12 256 238 229 224 219 217 219 218 219 221 217 219 224 224 228 231 231 232
141 214 100 119 79 5 100 91 345 336 359 233 324 238 249 274 260 249 328 319 342 21 354 317 308 306 289 246 225 222 221 221 220 220 221 223 226 228 230 231 231 230 233 234
160 262 158 188 180 173 192 160 162 197 205 265 327 239 252 244 293 16 324 343 41 4 346 325 304 298 277 248 233 228 226 228 227 226 227 228 230 232 236 237 238 239 239 243
168 239 113 126 147 151 207 213 178 86 47 43 239 296 289 272 336 341 356 28 22 6 8 345 342 334 307 271 251 236 230 234 234 232 233 233 234 236 238 240 241 244 246 244
190 120 4 1 98 27 145 174 75 5 153 243 262 278 223 307 313 49 49 14 340 1 1 1 11 27 16 274 277 264 247 243 241 237 237 238 240 241 242 245 243 245 249 248
161 128 305 127 201 169 126 193 164 146 155 174 273 256 217 192 140 151 70 353 357 350 324 294 259 251 255 277 247 235 237 242 242 241 240 242 242 243 244 244 245 247 251 249
211 143 170 200 248 157 129 184 163 162 240 223 181 266 148 136 166 101 58 29 359 285 244 242 235 270 259 254 249 252 240 236 240 239 241 244 246 245 245 245 247 249 247 247
339 32 56 355 1 354 160 193 192 173 92 240 129 259 120 26 327 327 15 342 319 305 311 307 290 271 269 263 254 248 240 244 245 244 246 250 249 247 247 248 249 248 247 246
61 60 156 177 111 30 65 11 14 5 167 236 230 281 277 321 315 325 339 326 323 315 301 291 300 286 277 275 270 264 260 256 254 248 250 255 259 254 254 257 255 251 248 246
135 217 227 231 185 115 210 268 268 255 272 259 277 283 284 290 290 295 300 300 310 310 321 306 284 289 300 298 286 270 265 266 265 261 259 261 269 269 266 264 262 254 249 249
102 169 191 285 227 234 243 232 221 230 247 246 255 257 269 277 282 308 297 306 310 321 332 319 316 327 329 326 331 324 308 293 282 272 267 273 272 272 272 269 262 254 250 249
151 133 123 276 139 159 299 238 206 207 214 222 243 253 268 289 328 16 320 0 16 354 352 351 339 337 337 337 332 322 317 309 300 289 279 277 277 277 278 276 259 248 242 242
149 126 131 218 30 310 245 310 10 206 220 227 254 300 24 319 299 272 156 39 1 348 345 337 332 330 329 327 322 317 311 305 302 296 293 290 284 276 276 269 257 250 245 242
147 135 145 165 189 302 304 274 183 168 260 48 203 319 323 322 318 240 207 24 307 286 300 300 318 323 324 326 327 325 323 318 310 303 302 302 293 279 271 262 252 246 242 242
169 161 157 106 173 208 241 213 111 120 273 173 151 286 312 10 338 292 274 289 310 299 303 321 328 325 326 328 326 325 322 319 315 314 310 304 295 286 275 267 257 251 247 246
156 203 217 222 230 275 255 208 145 131 252 208 185 231 266 255 223 272 292 299 301 296 328 329 325 324 322 328 322 316 317 315 316 309 301 298 294 289 278 263 253 254 249 242
160 161 194 198 210 243 227 84 175 194 209 180 218 245 232 254 274 271 290 292 308 317 329 328 325 326 325 325 321 318 311 315 313 307 305 299 284 277 267 245 219 217 224 214
228 186 180 183 202 222 156 144 185 162 177 243 214 259 248 256 260 274 285 307 313 314 322 325 324 325 325 319 317 315 319 314 302 293 288 288 284 259 224 215 189 179 191 183
258 167 196 80 257 234 236 268 178 193 217 247 236 251 244 257 270 272 288 294 299 315 316 321 322 325 322 319 310 299 313 309 294 278 260 260 233 222 203 199 190 186 179 177
204 122 185 271 289 306 303 293 303 322 268 273 257 229 244 253 271 236 269 278 290 290 313 304 300 303 304 308 305 312 326 313 289 276 212 174 170 156 152 139 153 179 192 196
179 186 167 236 235 190 267 282 298 291 281 258 269 285 239 228 266 263 270 291 301 322 327 317 315 307 304 307 308 306 321 323 274 264 244 215 175 164 150 122 104 86 88 92